TIANLIAN 1-02

导读 | 豆包AI

TIANLIAN 1-02即天链一号02星,是中国研制发射的第一代数据中继卫星,属于天链一号卫星系统的第二颗卫星。该卫星于2011年7月11日成功发射,定点于东经176.8°,主要为神舟载人飞船及中低轨航天器提供数据中继与测控服务,它与同系列卫星组网后,实现了对中低轨航天器全轨道覆盖,标志中国完成第一代中继卫星系统建设,是中国天基测控体系的核心组成部分。

基本信息
目录编号:
37737
目录名称:
TIANLIAN 1-02
国际标识:
2011-032A
轨道中心:
EARTH
卫星名称:
TIANLIAN 1-02
卫星全名:
--
卫星状态:
在轨 (已飞行5360 天)
发射日期:
2011-07-11 UTC
国别 :
中国 (CN)
星等 :
--
轨道信息
数据来源 国际轨道数据
星历时间: 2026-03-13T15:40:05+0800
19小时前
查看轨道信息
半长轴: 42525.014km
偏心率: 0.0008209
轨道倾角: 5.309°
近地点辐角 258.709°
升交点赤经 68.279°
平近点角 133.831°
近地点: 36111.968km
远地点: 36181.786km
周期: 1454.543分钟
每日圈数: 0.990002
详细信息
使用方式:
暂无
2D轨道图
3D轨道图
轨道高度分析图
轨道倾角分析图
轨道综合分析图
查看轨道综合分析图